Location: Catacaguana
(10.4120°N, 66.7591°W)
Time: 06:31:48
(UTC+00:00)

SJ 16-02 - Pass Details

Date: 27 May 2022
Orbit: 604 x 615 km, 75.0° (Epoch: 26 June)

Event Time Altitude Azimuth Distance (km) Brightness Sun altitude
Exits shadow 00:38:51 11° 25° (NNE) 1,850 3.8 -26.3°
Drops below altitude 10° 00:39:01 10° 24° (NNE) 1,912 3.9 -26.3°
Sets 00:41:21 0° 20° (NNE) 2,845 4.9 -26.8°
